This demonstration page uses our WeatherBlox Daily Observations layout. Learn more.

Left ArrowRight Arrow

Hourly Observations for October 26, 2016

Temp ( °F °C ) Dew Point ( °F °C ) Humidity (%) Winds ( mph kmh ) Pressure ( in mb ) Visibility ( mi km ) Precip ( " mm )
12:54 am 00:54 Clear with Light Rain 71 21.7 62 16.7 73 73 WSW 13 20 29.86 1011 10 16.0934 0 0.0254
1:07 am 01:07 Clear 70 21.1 62 16.7 76 76 W 13 20 29.88 1012 10 16.0934 0 0.0254
1:54 am 01:54 Clear 68 20 60 15.6 76 76 WSW 7 11 29.89 1012 10 16.0934 0 0.0254
2:54 am 02:54 Clear 64 17.8 56 13.3 75 75 SSW 10 17 29.92 1013 10 16.0934 0 0
3:54 am 03:54 Partly Cloudy 63 17.2 55 12.8 76 76 WSW 9 15 29.95 1014 10 16.0934 0 0
4:54 am 04:54 Clear 61 16.1 54 12.2 78 78 WNW 10 17 29.94 1014 10 16.0934 0 0
5:54 am 05:54 Clear 58 14.4 54 12.2 87 87 WNW 12 19 29.96 1014 10 16.0934 0 0
6:54 am 06:54 Clear 57 13.9 53 11.7 87 87 NW 7 11 29.97 1015 10 16.0934 0 0
7:54 am 07:54 Sunny 56 13.3 52 11.1 87 87 WNW 8 13 29.99 1016 10 16.0934 0 0
8:54 am 08:54 Sunny 56 13.3 51 10.6 84 84 NW 13 20 30.01 1016 9 14.48406 0 0
9:24 am 09:24 Mostly Cloudy 55 13 52 11 88 88 NNW 18 30 30.06 1018 9 14.48406 0 0
9:54 am 09:54 Cloudy with Light Rain 56 13.3 52 11.1 87 87 NNW 21 33 30.05 1018 9 14.48406 0 0.0254
10:54 am 10:54 Cloudy with Light Rain 55 12.8 51 10.6 87 87 N 16 26 30.08 1019 9 14.48406 0 0.0254
11:54 am 11:54 Cloudy with Light Rain 55 12.8 50 10 83 83 N 16 26 30.12 1020 10 16.0934 0 0.0254
12:06 pm 12:06 Cloudy with Light Rain 55 13 50 10 82 82 N 14 22 30.12 1020 10 16.0934 0 0
12:54 pm 12:54 Cloudy with Light Rain 58 14.4 50 10 75 75 NNW 14 22 30.11 1020 10 16.0934 0 0.0254
1:22 pm 13:22 Cloudy with Light Rain 57 14 50 10 77 77 N 16 26 30.12 1020 10 16.0934 0 0
1:54 pm 13:54 Mostly Cloudy with Light Rain 60 15.6 50 10 70 70 NNW 13 20 30.1 1019 10 16.0934 0 0.0254
2:06 pm 14:06 Partly Cloudy 61 16 50 10 68 68 NNW 14 22 30.12 1020 10 16.0934 0 0
2:54 pm 14:54 Sunny 63 17.2 50 10 63 63 N 8 13 30.09 1019 10 16.0934 0 0.0254
3:15 pm 15:15 Hazy 64 17.8 50 10 60 60 N 10 17 30.06 1018 1.75 2.816345 0 0
3:24 pm 15:24 Sunny with Light Rain 64 18 50 10 60 60 N 14 22 30.06 1018 7 11.26538 0 0
3:54 pm 15:54 Sunny 65 18.3 50 10 59 59 N 12 19 30.09 1019 10 16.0934 0 0.0254
4:54 pm 16:54 Sunny 63 17.2 48 8.9 58 58 N 12 19 30.12 1020 10 16.0934 0 0
5:54 pm 17:54 Sunny 59 15 48 8.9 67 67 N 8 13 30.12 1020 10 16.0934 0 0
6:54 pm 18:54 Clear 54 12.2 47 8.3 77 77 N 5 7 30.15 1021 10 16.0934 0 0
7:54 pm 19:54 Clear 49 9.4 45 7.2 86 86 NNE 7 11 30.17 1022 10 16.0934 0 0
8:54 pm 20:54 Clear 50 10 46 7.8 86 86 ENE 7 11 30.19 1022 10 16.0934 0 0
9:54 pm 21:54 Clear 48 8.9 46 7.8 93 93 NE 3 6 30.21 1023 9 14.48406 0 0
10:54 pm 22:54 Clear 48 8.9 46 7.8 93 93 Calm 30.23 1024 8 12.87472 0 0
11:54 pm 23:54 Clear 48 8.9 45 7.2 89 89 Calm 30.23 1024 8 12.87472 0 0

Powered by AerisWeather